This is the latest recevied weather packets stored in our database for station/object AF9W-5. If no packets are shown the sender has not sent any weather packets the latest 1 day(s).
| Time | Temp. | Humidity | Pressure | Rain* | Wind** | Luminosity | Snow |
|---|---|---|---|---|---|---|---|
| 1778024708 | 22.22° C | 34% | 1009.7 hPa | 0 mm | 0.89 m/s, 54° | 119 W/m² | - |
| 1778024404 | 22.78° C | 33% | 1009.6 hPa | 0 mm | 2.24 m/s, 139° | 81 W/m² | - |
| 1778024102 | 22.78° C | 33% | 1009.3 hPa | 0 mm | 1.34 m/s, 263° | 125 W/m² | - |
| 1778023799 | 22.78° C | 32% | 1009.3 hPa | 0 mm | 2.24 m/s, 294° | 190 W/m² | - |
| 1778023497 | 22.78° C | 32% | 1009.8 hPa | 0 mm | 0.89 m/s, 347° | 224 W/m² | - |
| 1778023194 | 22.78° C | 32% | 1009.7 hPa | 0 mm | 0.45 m/s, 138° | 459 W/m² | - |
| 1778022891 | 22.78° C | 31% | 1009.8 hPa | 0 mm | 1.34 m/s, 110° | 484 W/m² | - |
| 1778022589 | 22.78° C | 32% | 1009.5 hPa | 0 mm | 1.79 m/s, 171° | 521 W/m² | - |
| 1778022287 | 22.22° C | 33% | 1009.8 hPa | 0 mm | 1.34 m/s, 283° | 540 W/m² | - |
| 1778021983 | 22.78° C | 32% | 1009.3 hPa | 0 mm | 1.79 m/s, 211° | 522 W/m² | - |
| 1778021680 | 22.78° C | 33% | 1009.7 hPa | 0 mm | 1.34 m/s, 235° | 523 W/m² | - |
| 1778021376 | 22.78° C | 34% | 1009.6 hPa | 0 mm | 1.34 m/s, 209° | 129 W/m² | - |
| 1778021073 | 23.33° C | 32% | 1009.8 hPa | 0 mm | 2.24 m/s, 270° | 576 W/m² | - |
| 1778020770 | 23.33° C | 33% | 1010 hPa | 0 mm | 1.34 m/s, 212° | 648 W/m² | - |
| 1778020467 | 23.89° C | 32% | 1009.7 hPa | 0 mm | 1.34 m/s, 247° | 649 W/m² | - |
| 1778020163 | 23.33° C | 34% | 1009.8 hPa | 0 mm | 0.89 m/s, 159° | 717 W/m² | - |
| 1778019860 | 22.78° C | 34% | 1010 hPa | 0 mm | 0.89 m/s, 301° | 702 W/m² | - |
| 1778019556 | 22.78° C | 34% | 1009.7 hPa | 0 mm | 0.89 m/s, 59° | 705 W/m² | - |
| 1778019253 | 22.78° C | 35% | 1010 hPa | 0 mm | 0.45 m/s, 239° | 714 W/m² | - |
| 1778018950 | 22.22° C | 34% | 1010.1 hPa | 0 mm | 1.79 m/s, 191° | 737 W/m² | - |
| 1778018647 | 22.22° C | 35% | 1010 hPa | 0 mm | 2.24 m/s, 244° | 185 W/m² | - |
| 1778018345 | 23.33° C | 34% | 1010.4 hPa | 0 mm | 1.79 m/s, 170° | 746 W/m² | - |
| 1778018043 | 23.89° C | 35% | 1010.1 hPa | 0 mm | 0.45 m/s, 114° | 723 W/m² | - |
| 1778017741 | 23.89° C | 35% | 1010.1 hPa | 0 mm | 0.45 m/s, 17° | 795 W/m² | - |
| 1778017438 | 23.89° C | 35% | 1010.3 hPa | 0 mm | 0.89 m/s, 110° | 802 W/m² | - |
* Rain latest hour (hover to see other rain measurements)
** Current wind speed in m/s (hover to see current wind gust speed)